EW0195 Weather Reports


Display with metric or nautical units.
time (UTC)temp
F
wind
direction
speed
MPH
gust
MPH
rain 1hr
in
rain 24hr
in
rain mn
in
humidity
%
barometer
mb
20260906010004 70 45 0.0 2.0 0.00 0.00 0.00 77 1011.9
20260906004501 69 45 0.0 2.0 0.00 0.00 0.00 80 1011.8
20260906003000 69 80 0.0 0.0 0.00 0.00 0.00 80 1011.7
20260906000003 70 80 0.0 0.0 0.00 0.00 0.00 78 1011.5
20260905234500 71 80 0.0 0.0 0.00 0.00 0.00 77 1011.4
20260905233000 72 80 0.0 0.0 0.00 0.00 0.00 74 1011.2
20260905231500 73 80 0.0 1.0 0.00 0.00 0.00 70 1011.1
20260905224501 74 81 1.0 2.0 0.00 0.00 0.00 68 1011.2
20260905223000 75 101 2.0 4.0 0.00 0.00 0.00 68 1011.0
20260905221501 76 70 2.0 5.0 0.00 0.00 0.00 68 1011.0
20260905220005 75 73 2.0 5.0 0.00 0.00 0.00 68 1010.7
20260905214502 76 68 5.0 9.0 0.00 0.00 0.00 65 1010.8
20260905213001 75 91 4.0 8.0 0.00 0.00 0.00 67 1010.8
20260905210004 77 73 5.0 11.0 0.00 0.00 0.00 64 1010.6
20260905204501 78 9 4.0 10.0 0.00 0.00 0.00 63 1010.4
20260905203001 77 66 5.0 10.0 0.00 0.00 0.00 62 1010.4
20260905201501 76 66 4.0 8.0 0.00 0.00 0.00 65 1010.6
20260905200005 77 58 5.0 10.0 0.00 0.00 0.00 64 1010.6
20260905194501 79 68 4.0 10.0 0.00 0.00 0.00 62 1010.6
20260905193001 80 266 2.0 7.0 0.00 0.00 0.00 63 1010.8
20260905191501 78 25 2.0 6.0 0.00 0.00 0.00 67 1011.0
20260905190004 76 65 3.0 7.0 0.00 0.00 0.00 66 1011.2
20260905184501 76 40 4.0 9.0 0.00 0.00 0.00 66 1011.3
20260905183001 77 68 3.0 6.0 0.00 0.00 0.00 67 1011.3
20260905181502 77 73 2.0 7.0 0.00 0.00 0.00 67 1011.3
20260905180003 77 345 3.0 6.0 0.00 0.00 0.00 69 1011.5
20260905174501 76 71 5.0 9.0 0.00 0.00 0.00 65 1011.6
20260905173000 76 84 4.0 7.0 0.00 0.00 0.00 67 1011.6
20260905171501 77 90 3.0 10.0 0.00 0.00 0.00 69 1011.7
20260905170006 76 39 4.0 10.0 0.00 0.00 0.00 68 1011.9
20260905164500 76 73 3.0 7.0 0.00 0.00 0.00 69 1012.0
20260905163001 76 354 4.0 8.0 0.00 0.00 0.00 70 1012.1
20260905161501 76 74 3.0 10.0 0.00 0.00 0.00 72 1012.2
20260905160006 75 71 2.0 8.0 0.00 0.00 0.00 72 1012.4
20260905154501 75 52 4.0 8.0 0.00 0.00 0.00 72 1012.5
20260905153000 75 79 4.0 8.0 0.00 0.00 0.00 74 1012.4
20260905151500 74 48 5.0 9.0 0.00 0.00 0.00 74 1012.4
20260905150004 74 58 6.0 12.0 0.00 0.00 0.00 74 1012.2
20260905144500 73 63 6.0 12.0 0.00 0.00 0.00 75 1012.0
20260905143001 73 340 4.0 8.0 0.00 0.00 0.00 76 1011.9
20260905141500 72 78 4.0 7.0 0.00 0.00 0.00 78 1012.1
20260905140005 71 86 3.0 7.0 0.00 0.00 0.00 79 1012.2
20260905134500 71 66 3.0 6.0 0.00 0.00 0.00 78 1012.2
20260905133001 72 35 2.0 6.0 0.00 0.00 0.00 80 1012.1
20260905131502 71 36 2.0 5.0 0.00 0.00 0.00 81 1012.0
20260905130003 71 76 3.0 7.0 0.00 0.00 0.00 81 1011.6
20260905124500 71 81 4.0 8.0 0.00 0.00 0.00 80 1011.8
20260905123001 71 75 3.0 6.0 0.00 0.00 0.00 80 1011.8
20260905121501 71 77 3.0 7.0 0.00 0.00 0.00 79 1011.9
20260905113000 70 65 3.0 6.0 0.00 0.00 0.00 83 1011.7
20260905111500 70 74 3.0 6.0 0.00 0.00 0.00 83 1011.5
20260905104503 70 84 1.0 4.0 0.00 0.00 0.00 85 1011.2
20260905103000 70 71 1.0 4.0 0.00 0.00 0.00 85 1011.0
20260905101500 70 101 2.0 4.0 0.00 0.00 0.00 86 1010.7
20260905094501 70 128 2.0 5.0 0.00 0.00 0.00 89 1010.7
20260905093000 71 94 1.0 4.0 0.00 0.00 0.00 91 1010.6
20260905091500 71 105 0.0 3.0 0.00 0.00 0.00 91 1010.7
20260905084500 71 81 1.0 3.0 0.00 0.00 0.00 92 1010.7
20260905083000 71 80 1.0 3.0 0.00 0.00 0.00 92 1010.5
20260905081500 71 76 2.0 4.0 0.00 0.00 0.00 93 1010.5
20260905074501 71 74 0.0 1.0 0.00 0.00 0.00 93 1010.6
20260905073000 71 74 1.0 2.0 0.00 0.00 0.00 93 1010.5
20260905070003 71 58 1.0 2.0 0.00 0.00 0.00 93 1010.8
20260905064501 71 90 0.0 2.0 0.00 0.00 0.00 93 1010.8
20260905063000 71 82 1.0 2.0 0.00 0.00 0.00 93 1010.8
20260905061501 71 100 0.0 2.0 0.00 0.00 0.00 93 1010.9
20260905060003 72 89 1.0 2.0 0.00 0.00 0.00 93 1011.0
20260905054500 72 79 1.0 3.0 0.00 0.00 0.00 92 1011.2
20260905051500 73 98 1.0 4.0 0.00 0.00 0.00 91 1011.2
20260905050004 73 92 1.0 4.0 0.00 0.00 0.00 91 1011.2
20260905043000 74 73 1.0 3.0 0.00 0.00 0.00 92 1011.7
20260905041500 74 276 0.0 1.0 0.00 0.00 0.00 92 1011.7
20260905040004 75 276 0.0 1.0 0.00 0.00 0.00 91 1011.8
20260905034501 75 70 0.0 1.0 0.00 0.00 0.00 90 1011.7
20260905033000 76 70 1.0 2.0 0.00 0.00 0.00 88 1011.6
20260905031500 76 314 0.0 0.0 0.00 0.00 0.00 88 1011.6
20260905030004 76 298 0.0 0.0 0.00 0.00 0.00 88 1011.6
20260905024501 76 298 0.0 0.0 0.00 0.00 0.00 88 1011.5
20260905023000 75 298 0.0 0.0 0.00 0.00 0.00 88 1011.6
20260905020003 76 298 0.0 0.0 0.00 0.00 0.00 87 1011.5
20260905014502 76 298 0.0 0.0 0.00 0.00 0.00 87 1011.4
20260905013001 76 298 0.0 0.0 0.00 0.00 0.00 87 1011.5
20260905011500 76 298 0.0 0.0 0.00 0.00 0.00 86 1011.4